This demonstration page uses our WeatherBlox Daily Observations layout. Learn more.

Left ArrowRight Arrow

Hourly Observations for September 11, 2022

Temp ( °F °C ) Dew Point ( °F °C ) Humidity (%) Winds ( mph kmh ) Pressure ( in mb ) Visibility ( mi km ) Precip ( " mm )
12:53 am 00:53 Clear 51 10.6 48 8.9 89 89 W 3 6 30.29 1026 10 16 0.00 0.00
1:53 am 01:53 Clear 50 10 47 8.3 89 89 W 6 9 30.29 1026 10 16 0.00 0.00
2:53 am 02:53 Clear 50 10 46 7.8 86 86 W 5 7 30.28 1025 10 16 0.00 0.00
3:53 am 03:53 Clear 50 10 46 7.8 86 86 W 6 9 30.27 1025 10 16 0.00 0.00
4:53 am 04:53 Clear 50 10 46 7.8 86 86 W 6 9 30.27 1025 10 16 0.00 0.00
5:53 am 05:53 Clear 49 9.4 46 7.8 90 90 W 5 7 30.27 1025 10 16 0.00 0.00
6:53 am 06:53 Clear 48 8.9 45 7.2 89 89 W 6 9 30.28 1025 10 16 0.00 0.00
7:53 am 07:53 Sunny 49 9.4 46 7.8 90 90 W 6 9 30.29 1026 9 14 0.00 0.00
8:53 am 08:53 Sunny 53 11.7 48 8.9 83 83 WNW 7 11 30.29 1026 10 16 0.00 0.00
9:53 am 09:53 Sunny 58 14.4 50 10 75 75 NW 6 9 30.30 1026 10 16 0.00 0.00
10:53 am 10:53 Sunny 64 17.8 51 10.6 63 63 NNW 5 7 30.30 1026 10 16 0.00 0.00
11:53 am 11:53 Sunny 70 21.1 47 8.3 44 44 VRB 6 9 30.28 1026 10 16 0.00 0.00
12:53 pm 12:53 Sunny 72 22.2 44 6.7 37 37 VRB 5 7 30.27 1025 10 16 0.00 0.00
1:53 pm 13:53 Partly Cloudy 75 23.9 40 4.4 28 28 Calm 30.24 1024 10 16 0.00 0.00
2:53 pm 14:53 Sunny 75 23.9 41 5 29 29 W 12 19 30.22 1023 10 16 0.00 0.00
3:53 pm 15:53 Sunny 75 23.9 44 6.7 33 33 NNW 6 9 30.18 1022 10 16 0.00 0.00
4:53 pm 16:53 Sunny 76 24.4 43 6.1 31 31 NNW 5 7 30.16 1022 10 16 0.00 0.00
5:53 pm 17:53 Sunny 75 23.9 43 6.1 32 32 NW 5 7 30.16 1021 10 16 0.00 0.00
6:53 pm 18:53 Sunny 73 22.8 45 7.2 37 37 WSW 5 7 30.15 1021 10 16 0.00 0.00
7:53 pm 19:53 Clear 67 19.4 47 8.3 49 49 SW 3 6 30.14 1021 10 16 0.00 0.00
8:53 pm 20:53 Clear 63 17.2 47 8.3 56 56 SSW 3 6 30.15 1021 10 16 0.00 0.00
9:53 pm 21:53 Clear 60 15.6 49 9.4 67 67 S 3 6 30.15 1021 10 16 0.00 0.00
10:53 pm 22:53 Clear 59 15 48 8.9 67 67 SSW 3 6 30.13 1020 10 16 0.00 0.00
11:53 pm 23:53 Clear 58 14.4 47 8.3 67 67 SSW 5 7 30.11 1020 10 16 0.00 0.00

Powered by AerisWeather